QPF
0.00 0.00 0.00 0.00 0.00 0.00 0.00 0.00 0.00 0.00 0.00 0.00 0.00 0.00 0.00 0.00 0.00 0.00 0.00 0.00 0.00 0.00 0.00 0.00 0.00 0.00 0.00 0.00 0.00 0.00 0.00 0.00 0.00 0.00 0.00 0.00 0.00 0.00 0.00 0.00 0.00 0.00 0.00
0.00 0.00 0.00 0.00 0.00 0.00 0.00 0.00 0.00 0.00 0.00 0.00 0.00 0.00 0.00 0.00 0.00 0.00 0.00 0.00 0.00 0.00 0.00 0.00 0.00 0.00 0.00 0.00 0.00 0.00 0.00 0.00 0.00 0.00 0.00 0.00 0.00 0.00 0.00 0.00 0.00 0.00 0.00
0.00 0.00 0.00 0.00 0.00 0.00 0.00 0.00 0.00 0.00 0.00 0.00 0.00 0.00 0.00 0.00 0.00 0.00 0.00 0.00 0.00 0.00 0.00 0.00 0.00 0.00 0.00 0.00 0.00 0.00 0.00 0.00 0.00 0.00 0.00 0.00 0.00 0.00 0.00 0.00 0.00 0.00 0.00
0.00 0.00 0.00 0.00 0.00 0.00 0.00 0.00 0.00 0.00 0.00 0.00 0.00 0.00 0.00 0.00 0.00 0.00 0.00 0.00 0.00 0.00 0.00 0.00 0.00 0.00 0.00 0.00 0.00 0.00 0.00 0.00 0.00 0.00 0.00 0.01 0.00 0.00 0.00 0.00 0.00 0.00 0.00
0.00 0.00 0.00 0.00 0.00 0.00 0.00 0.00 0.00 0.00 0.00 0.00 0.00 0.00 0.00 0.00 0.00 0.00 0.00 0.00 0.00 0.00 0.00 0.00 0.00 0.00 0.00 0.00 0.00 0.00 0.00 0.00 0.00 0.00 0.00 0.01 0.01 0.01 0.01 0.01 0.01 0.01 0.01
0.00 0.00 0.00 0.00 0.00 0.00 0.00 0.00 0.00 0.00 0.00 0.00 0.00 0.00 0.00 0.00 0.00 0.00 0.00 0.00 0.00 0.00 0.00 0.00 0.00 0.00 0.00 0.00 0.00 0.00 0.00 0.00 0.00 0.00 0.00 0.01 0.01 0.01 0.01 0.01 0.01 0.01 0.01
0.00 0.00 0.00 0.00 0.00 0.00 0.00 0.00 0.00 0.00 0.00 0.00 0.00 0.00 0.00 0.00 0.00 0.00 0.00 0.00 0.00 0.00 0.00 0.00 0.00 0.00 0.00 0.00 0.00 0.00 0.00 0.00 0.00 0.00 0.00 0.00 0.01 0.01 0.01 0.01 0.01 0.01 0.01
0.00 0.00 0.00 0.00 0.00 0.00 0.00 0.00 0.00 0.00 0.00 0.00 0.00 0.00 0.00 0.00 0.00 0.00 0.00 0.00 0.00 0.00 0.00 0.00 0.00 0.00 0.00 0.00 0.00 0.00 0.00 0.00 0.00 0.00 0.00 0.00 0.01 0.01 0.02 0.02 0.02 0.02 0.02
0.00 0.00 0.00 0.00 0.00 0.00 0.00 0.00 0.00 0.00 0.00 0.00 0.00 0.00 0.00 0.00 0.00 0.00 0.00 0.00 0.00 0.00 0.00 0.00 0.00 0.00 0.00 0.00 0.00 0.00 0.00 0.00 0.00 0.00 0.00 0.00 0.00 0.01 0.02 0.02 0.03 0.03 0.03
0.00 0.00 0.00 0.00 0.00 0.00 0.00 0.00 0.00 0.00 0.00 0.00 0.00 0.00 0.00 0.00 0.00 0.00 0.00 0.00 0.00 0.00 0.00 0.00 0.00 0.00 0.00 0.00 0.00 0.00 0.00 0.00 0.00 0.00 0.00 0.00 0.00 0.01 0.02 0.02 0.03 0.04 0.04
0.00 0.00 0.00 0.00 0.00 0.00 0.00 0.00 0.00 0.00 0.00 0.00 0.00 0.00 0.00 0.00 0.00 0.00 0.00 0.00 0.00 0.00 0.00 0.00 0.00 0.00 0.00 0.00 0.00 0.00 0.00 0.00 0.00 0.00 0.00 0.00 0.00 0.00 0.01 0.03 0.04 0.05 0.06
0.00 0.00 0.00 0.00 0.00 0.00 0.00 0.00 0.00 0.00 0.00 0.00 0.00 0.00 0.00 0.00 0.00 0.00 0.00 0.00 0.00 0.00 0.00 0.00 0.00 0.00 0.00 0.00 0.00 0.00 0.00 0.00 0.00 0.00 0.00 0.00 0.00 0.00 0.00 0.01 0.03 0.05 0.07
0.00 0.00 0.00 0.00 0.00 0.00 0.00 0.00 0.00 0.00 0.00 0.00 0.00 0.00 0.00 0.00 0.00 0.00 0.00 0.00 0.00 0.00 0.00 0.00 0.00 0.00 0.00 0.00 0.00 0.00 0.00 0.00 0.00 0.00 0.00 0.00 0.00 0.00 0.00 0.00 0.01 0.03 0.06
0.00 0.00 0.00 0.00 0.00 0.00 0.00 0.00 0.00 0.00 0.00 0.00 0.00 0.00 0.00 0.00 0.00 0.00 0.00 0.00 0.00 0.00 0.00 0.00 0.00 0.00 0.00 0.00 0.00 0.00 0.00 0.00 0.00 0.00 0.00 0.00 0.00 0.00 0.00 0.00 0.00 0.01 0.03
0.00 0.00 0.00 0.00 0.00 0.00 0.00 0.00 0.00 0.00 0.00 0.00 0.00 0.00 0.00 0.00 0.00 0.00 0.00 0.00 0.00 0.00 0.00 0.00 0.00 0.00 0.00 0.00 0.00 0.00 0.00 0.00 0.00 0.00 0.00 0.00 0.00 0.00 0.00 0.00 0.00 0.00 0.01
0.00 0.00 0.00 0.00 0.00 0.00 0.00 0.00 0.00 0.00 0.00 0.00 0.00 0.00 0.00 0.00 0.00 0.00 0.00 0.00 0.00 0.00 0.00 0.00 0.00 0.00 0.00 0.00 0.00 0.00 0.00 0.00 0.00 0.00 0.00 0.01 0.01 0.01 0.01 0.01 0.01 0.01 0.01
0.00 0.00 0.00 0.00 0.00 0.00 0.00 0.00 0.00 0.00 0.00 0.00 0.00 0.00 0.00 0.00 0.00 0.00 0.00 0.00 0.00 0.00 0.00 0.00 0.00 0.00 0.00 0.00 0.00 0.00 0.00 0.00 0.00 0.00 0.00 0.00 0.00 0.01 0.01 0.01 0.01 0.01 0.02
0.00 0.00 0.00 0.00 0.00 0.00 0.00 0.00 0.00 0.00 0.00 0.00 0.00 0.00 0.00 0.00 0.00 0.00 0.00 0.00 0.00 0.00 0.00 0.00 0.00 0.00 0.00 0.00 0.00 0.00 0.00 0.00 0.00 0.00 0.00 0.00 0.00 0.00 0.01 0.01 0.01 0.02 0.02
0.00 0.00 0.00 0.00 0.00 0.00 0.00 0.00 0.00 0.00 0.00 0.00 0.00 0.00 0.00 0.00 0.00 0.00 0.00 0.00 0.00 0.00 0.00 0.01 0.01 0.00 0.00 0.00 0.00 0.00 0.00 0.00 0.00 0.00 0.00 0.00 0.00 0.01 0.01 0.01 0.02 0.03 0.03
0.00 0.00 0.00 0.00 0.00 0.00 0.00 0.00 0.00 0.00 0.00 0.00 0.00 0.00 0.00 0.00 0.00 0.00 0.00 0.00 0.00 0.01 0.01 0.01 0.01 0.01 0.01 0.00 0.00 0.00 0.00 0.00 0.00 0.00 0.00 0.00 0.00 0.01 0.01 0.02 0.02 0.03 0.04
0.00 0.00 0.00 0.00 0.00 0.00 0.00 0.00 0.00 0.00 0.00 0.00 0.00 0.00 0.00 0.00 0.00 0.01 0.01 0.01 0.02 0.02 0.03 0.04 0.03 0.02 0.02 0.01 0.01 0.01 0.01 0.01 0.01 0.00 0.00 0.00 0.00 0.01 0.01 0.01 0.02 0.03 0.04
0.00 0.00 0.00 0.00 0.00 0.00 0.00 0.00 0.00 0.00 0.00 0.00 0.00 0.00 0.00 0.00 0.01 0.01 0.02 0.03 0.03 0.04 0.05 0.07 0.07 0.06 0.04 0.03 0.03 0.03 0.03 0.03 0.03 0.01 0.01 0.01 0.01 0.01 0.00 0.01 0.01 0.02 0.04
0.00 0.00 0.00 0.00 0.00 0.00 0.00 0.00 0.00 0.00 0.00 0.00 0.00 0.00 0.00 0.00 0.01 0.01 0.01 0.02 0.02 0.02 0.03 0.05 0.06 0.05 0.04 0.03 0.05 0.06 0.06 0.05 0.03 0.01 0.02 0.02 0.01 0.01 0.00 0.01 0.01 0.02 0.04
0.00 0.00 0.00 0.00 0.00 0.00 0.00 0.00 0.00 0.00 0.00 0.00 0.00 0.00 0.00 0.00 0.00 0.01 0.01 0.01 0.01 0.01 0.01 0.02 0.02 0.02 0.02 0.02 0.04 0.05 0.06 0.06 0.05 0.02 0.02 0.04 0.01 0.00 0.00 0.01 0.01 0.02 0.03
0.00 0.00 0.00 0.00 0.00 0.00 0.00 0.00 0.00 0.00 0.00 0.00 0.00 0.00 0.00 0.00 0.01 0.02 0.02 0.02 0.02 0.01 0.01 0.02 0.04 0.04 0.05 0.06 0.08 0.11 0.13 0.14 0.11 0.04 0.02 0.03 0.02 0.01 0.01 0.00 0.00 0.01 0.02
0.00 0.00 0.00 0.00 0.00 0.00 0.00 0.00 0.00 0.00 0.00 0.00 0.00 0.00 0.01 0.01 0.02 0.03 0.03 0.03 0.03 0.02 0.02 0.02 0.02 0.02 0.03 0.03 0.05 0.08 0.11 0.15 0.14 0.09 0.02 0.02 0.02 0.03 0.03 0.01 0.00 0.00 0.01
MSLP
1021.62 1021.82 1021.95 1022.03 1022.07 1022.09 1022.13 1022.19 1022.27 1022.37 1022.47 1022.55 1022.61 1022.64 1022.62 1022.59 1022.54 1022.49 1022.45 1022.41 1022.37 1022.33 1022.27 1022.19 1022.09 1021.97 1021.84 1021.72 1021.61 1021.54 1021.51 1021.53 1021.59 1021.68 1021.81 1021.94 1022.09 1022.22 1022.33 1022.41 1022.45 1022.46 1022.44
1021.36 1021.53 1021.65 1021.72 1021.75 1021.76 1021.78 1021.81 1021.88 1021.96 1022.04 1022.11 1022.16 1022.17 1022.13 1022.07 1021.99 1021.90 1021.81 1021.75 1021.70 1021.66 1021.62 1021.57 1021.51 1021.41 1021.30 1021.17 1021.04 1020.93 1020.85 1020.81 1020.82 1020.89 1021.02 1021.18 1021.37 1021.56 1021.73 1021.87 1021.97 1022.02 1022.04
1021.03 1021.21 1021.33 1021.41 1021.45 1021.47 1021.50 1021.53 1021.58 1021.65 1021.72 1021.77 1021.79 1021.77 1021.70 1021.58 1021.44 1021.29 1021.15 1021.04 1020.96 1020.91 1020.89 1020.88 1020.86 1020.81 1020.73 1020.61 1020.47 1020.32 1020.19 1020.09 1020.05 1020.08 1020.17 1020.33 1020.53 1020.75 1020.96 1021.15 1021.30 1021.40 1021.46
1020.69 1020.87 1021.02 1021.13 1021.21 1021.27 1021.32 1021.36 1021.41 1021.47 1021.52 1021.54 1021.53 1021.47 1021.34 1021.17 1020.95 1020.72 1020.51 1020.33 1020.21 1020.15 1020.13 1020.15 1020.17 1020.18 1020.14 1020.05 1019.91 1019.74 1019.56 1019.40 1019.29 1019.26 1019.30 1019.42 1019.60 1019.81 1020.04 1020.26 1020.44 1020.58 1020.69
1020.38 1020.57 1020.75 1020.91 1021.05 1021.15 1021.23 1021.29 1021.35 1021.40 1021.42 1021.42 1021.37 1021.26 1021.09 1020.84 1020.55 1020.24 1019.94 1019.69 1019.51 1019.42 1019.40 1019.43 1019.49 1019.53 1019.53 1019.47 1019.34 1019.16 1018.94 1018.73 1018.56 1018.45 1018.43 1018.49 1018.62 1018.80 1019.01 1019.22 1019.42 1019.59 1019.74
1020.10 1020.31 1020.53 1020.74 1020.92 1021.07 1021.18 1021.27 1021.33 1021.37 1021.38 1021.36 1021.28 1021.13 1020.91 1020.61 1020.25 1019.87 1019.49 1019.17 1018.92 1018.77 1018.72 1018.74 1018.81 1018.87 1018.90 1018.86 1018.74 1018.55 1018.32 1018.06 1017.84 1017.66 1017.57 1017.55 1017.62 1017.74 1017.91 1018.09 1018.28 1018.45 1018.63
1019.89 1020.10 1020.34 1020.59 1020.81 1020.99 1021.12 1021.22 1021.28 1021.31 1021.32 1021.28 1021.19 1021.02 1020.77 1020.44 1020.04 1019.60 1019.16 1018.76 1018.45 1018.23 1018.13 1018.11 1018.15 1018.21 1018.23 1018.20 1018.09 1017.90 1017.65 1017.37 1017.11 1016.88 1016.72 1016.64 1016.63 1016.69 1016.79 1016.92 1017.07 1017.24 1017.42
1019.72 1019.93 1020.17 1020.43 1020.66 1020.85 1020.99 1021.08 1021.14 1021.17 1021.17 1021.13 1021.04 1020.88 1020.64 1020.31 1019.89 1019.42 1018.94 1018.48 1018.09 1017.80 1017.61 1017.53 1017.51 1017.53 1017.53 1017.48 1017.36 1017.17 1016.93 1016.64 1016.36 1016.11 1015.90 1015.77 1015.69 1015.68 1015.71 1015.77 1015.88 1016.01 1016.17
1019.59 1019.78 1020.01 1020.25 1020.46 1020.64 1020.76 1020.84 1020.88 1020.89 1020.89 1020.87 1020.80 1020.67 1020.46 1020.16 1019.76 1019.28 1018.77 1018.26 1017.80 1017.43 1017.15 1016.98 1016.88 1016.82 1016.77 1016.69 1016.56 1016.37 1016.13 1015.86 1015.59 1015.33 1015.12 1014.95 1014.83 1014.75 1014.71 1014.71 1014.75 1014.83 1014.95
1019.50 1019.65 1019.85 1020.05 1020.23 1020.36 1020.44 1020.48 1020.50 1020.50 1020.50 1020.49 1020.46 1020.37 1020.20 1019.94 1019.57 1019.11 1018.59 1018.05 1017.54 1017.09 1016.72 1016.44 1016.24 1016.10 1015.98 1015.85 1015.70 1015.51 1015.29 1015.04 1014.80 1014.57 1014.37 1014.19 1014.05 1013.93 1013.84 1013.77 1013.73 1013.74 1013.81
1019.45 1019.56 1019.71 1019.85 1019.97 1020.05 1020.07 1020.07 1020.05 1020.03 1020.02 1020.03 1020.02 1019.97 1019.85 1019.63 1019.30 1018.87 1018.35 1017.79 1017.23 1016.71 1016.26 1015.89 1015.59 1015.36 1015.16 1014.98 1014.81 1014.61 1014.41 1014.21 1014.01 1013.83 1013.66 1013.50 1013.36 1013.22 1013.09 1012.96 1012.85 1012.78 1012.77
1019.43 1019.51 1019.61 1019.69 1019.74 1019.74 1019.70 1019.64 1019.57 1019.52 1019.50 1019.50 1019.51 1019.49 1019.39 1019.21 1018.91 1018.50 1018.00 1017.43 1016.84 1016.28 1015.76 1015.31 1014.93 1014.62 1014.36 1014.13 1013.93 1013.73 1013.55 1013.39 1013.24 1013.11 1012.99 1012.87 1012.74 1012.60 1012.44 1012.26 1012.09 1011.93 1011.84
1019.45 1019.50 1019.55 1019.57 1019.54 1019.47 1019.36 1019.24 1019.12 1019.03 1018.98 1018.97 1018.97 1018.94 1018.86 1018.69 1018.41 1018.01 1017.51 1016.95 1016.35 1015.76 1015.21 1014.71 1014.28 1013.91 1013.60 1013.34 1013.11 1012.91 1012.74 1012.60 1012.50 1012.41 1012.34 1012.27 1012.17 1012.03 1011.86 1011.65 1011.42 1011.19 1011.01
1019.49 1019.51 1019.51 1019.47 1019.38 1019.24 1019.06 1018.88 1018.71 1018.58 1018.49 1018.45 1018.41 1018.36 1018.26 1018.08 1017.79 1017.40 1016.91 1016.36 1015.77 1015.18 1014.62 1014.11 1013.66 1013.26 1012.92 1012.62 1012.37 1012.16 1011.99 1011.87 1011.79 1011.74 1011.71 1011.67 1011.60 1011.49 1011.31 1011.08 1010.81 1010.53 1010.26
1019.52 1019.52 1019.47 1019.38 1019.22 1019.02 1018.79 1018.55 1018.34 1018.16 1018.04 1017.95 1017.87 1017.78 1017.64 1017.42 1017.12 1016.71 1016.23 1015.69 1015.13 1014.57 1014.03 1013.53 1013.09 1012.68 1012.32 1012.01 1011.73 1011.49 1011.31 1011.18 1011.11 1011.07 1011.06 1011.05 1011.01 1010.92 1010.76 1010.53 1010.24 1009.91 1009.59
1019.51 1019.48 1019.38 1019.23 1019.02 1018.76 1018.49 1018.22 1017.97 1017.76 1017.60 1017.47 1017.34 1017.20 1017.01 1016.75 1016.41 1016.00 1015.52 1015.00 1014.47 1013.95 1013.45 1012.99 1012.57 1012.18 1011.81 1011.47 1011.17 1010.91 1010.69 1010.54 1010.44 1010.40 1010.40 1010.40 1010.38 1010.32 1010.18 1009.96 1009.67 1009.33 1008.97
1019.42 1019.34 1019.20 1018.99 1018.73 1018.43 1018.13 1017.83 1017.57 1017.35 1017.16 1017.00 1016.83 1016.64 1016.40 1016.10 1015.73 1015.29 1014.82 1014.32 1013.83 1013.35 1012.90 1012.49 1012.09 1011.72 1011.35 1011.00 1010.67 1010.36 1010.11 1009.91 1009.78 1009.72 1009.70 1009.71 1009.71 1009.66 1009.56 1009.37 1009.10 1008.76 1008.39
1019.23 1019.09 1018.89 1018.63 1018.33 1018.00 1017.68 1017.38 1017.12 1016.89 1016.70 1016.52 1016.33 1016.10 1015.82 1015.48 1015.08 1014.63 1014.15 1013.67 1013.21 1012.77 1012.37 1011.99 1011.62 1011.26 1010.90 1010.53 1010.17 1009.82 1009.52 1009.28 1009.11 1009.02 1008.98 1008.99 1008.99 1008.98 1008.90 1008.75 1008.51 1008.20 1007.84
1018.93 1018.73 1018.47 1018.16 1017.83 1017.49 1017.16 1016.87 1016.61 1016.40 1016.21 1016.02 1015.81 1015.56 1015.25 1014.88 1014.45 1013.99 1013.51 1013.04 1012.59 1012.18 1011.81 1011.45 1011.11 1010.76 1010.39 1010.01 1009.62 1009.25 1008.91 1008.63 1008.42 1008.30 1008.25 1008.25 1008.26 1008.26 1008.22 1008.11 1007.92 1007.65 1007.31
1018.54 1018.29 1017.98 1017.64 1017.28 1016.92 1016.59 1016.30 1016.06 1015.86 1015.67 1015.48 1015.26 1015.00 1014.67 1014.27 1013.82 1013.34 1012.85 1012.38 1011.94 1011.54 1011.17 1010.83 1010.49 1010.14 1009.78 1009.39 1008.99 1008.60 1008.24 1007.94 1007.71 1007.57 1007.51 1007.50 1007.53 1007.54 1007.53 1007.45 1007.30 1007.07 1006.78
1018.11 1017.82 1017.48 1017.10 1016.72 1016.36 1016.02 1015.74 1015.50 1015.29 1015.11 1014.91 1014.68 1014.39 1014.04 1013.62 1013.15 1012.65 1012.14 1011.65 1011.19 1010.78 1010.41 1010.06 1009.73 1009.38 1009.02 1008.64 1008.25 1007.86 1007.51 1007.21 1006.99 1006.85 1006.78 1006.77 1006.80 1006.82 1006.83 1006.78 1006.66 1006.47 1006.22
1017.68 1017.37 1017.00 1016.61 1016.22 1015.84 1015.49 1015.19 1014.93 1014.71 1014.51 1014.29 1014.03 1013.71 1013.33 1012.88 1012.38 1011.85 1011.31 1010.80 1010.32 1009.88 1009.49 1009.14 1008.80 1008.46 1008.11 1007.75 1007.39 1007.04 1006.72 1006.45 1006.25 1006.12 1006.06 1006.05 1006.08 1006.11 1006.12 1006.08 1005.99 1005.84 1005.63
1017.28 1016.96 1016.59 1016.19 1015.78 1015.38 1015.01 1014.68 1014.38 1014.12 1013.87 1013.60 1013.30 1012.94 1012.51 1012.03 1011.49 1010.92 1010.35 1009.81 1009.30 1008.84 1008.43 1008.06 1007.72 1007.39 1007.07 1006.76 1006.45 1006.15 1005.89 1005.67 1005.51 1005.41 1005.36 1005.36 1005.38 1005.40 1005.41 1005.38 1005.30 1005.17 1005.01
1016.91 1016.60 1016.24 1015.83 1015.41 1014.98 1014.57 1014.18 1013.83 1013.50 1013.18 1012.85 1012.48 1012.06 1011.58 1011.05 1010.47 1009.87 1009.27 1008.69 1008.15 1007.67 1007.24 1006.87 1006.54 1006.24 1005.96 1005.70 1005.46 1005.24 1005.05 1004.90 1004.79 1004.73 1004.69 1004.69 1004.70 1004.71 1004.70 1004.67 1004.60 1004.50 1004.37
1016.54 1016.25 1015.89 1015.48 1015.03 1014.57 1014.11 1013.67 1013.25 1012.84 1012.44 1012.03 1011.59 1011.10 1010.57 1009.99 1009.37 1008.74 1008.11 1007.51 1006.95 1006.45 1006.02 1005.65 1005.34 1005.07 1004.85 1004.66 1004.49 1004.35 1004.24 1004.16 1004.11 1004.08 1004.07 1004.07 1004.06 1004.06 1004.03 1003.99 1003.93 1003.86 1003.78
1016.13 1015.85 1015.49 1015.07 1014.60 1014.10 1013.59 1013.09 1012.60 1012.12 1011.64 1011.15 1010.64 1010.09 1009.51 1008.89 1008.25 1007.59 1006.95 1006.33 1005.77 1005.27 1004.84 1004.49 1004.20 1003.98 1003.81 1003.68 1003.59 1003.53 1003.49 1003.48 1003.47 1003.48 1003.49 1003.49 1003.48 1003.46 1003.43 1003.39 1003.34 1003.30 1003.27
Thickness
5641 5638 5636 5634 5632 5631 5630 5629 5628 5627 5627 5627 5627 5627 5627 5628 5628 5628 5628 5628 5628 5628 5628 5629 5629 5630 5630 5630 5630 5630 5629 5629 5628 5627 5626 5626 5625 5624 5623 5623 5622 5622 5621
5636 5634 5632 5630 5628 5627 5625 5624 5623 5622 5622 5622 5622 5622 5623 5623 5623 5623 5624 5624 5623 5623 5622 5623 5623 5624 5624 5624 5624 5624 5624 5623 5623 5622 5621 5620 5619 5618 5618 5617 5616 5615 5615
5632 5630 5627 5625 5623 5622 5620 5619 5618 5617 5617 5616 5616 5617 5617 5618 5618 5619 5619 5619 5619 5618 5618 5617 5617 5617 5618 5618 5618 5618 5618 5618 5617 5616 5616 5615 5613 5612 5611 5611 5610 5609 5608
5628 5625 5623 5620 5618 5617 5615 5614 5612 5610 5610 5609 5610 5611 5612 5613 5614 5614 5614 5615 5615 5614 5614 5612 5611 5611 5611 5611 5611 5611 5611 5611 5611 5610 5610 5609 5608 5607 5606 5605 5603 5602 5602
5623 5620 5618 5615 5613 5611 5610 5608 5606 5604 5603 5602 5603 5605 5606 5607 5608 5609 5610 5610 5610 5610 5609 5607 5605 5604 5603 5603 5603 5603 5604 5604 5604 5604 5603 5603 5602 5601 5600 5599 5597 5596 5595
5617 5615 5612 5610 5607 5605 5603 5601 5600 5598 5597 5596 5597 5599 5599 5601 5602 5603 5605 5606 5605 5604 5602 5601 5599 5597 5595 5594 5593 5593 5594 5595 5596 5596 5596 5595 5595 5594 5593 5592 5591 5590 5589
5612 5609 5606 5604 5601 5599 5597 5595 5593 5592 5590 5588 5587 5588 5592 5595 5598 5600 5601 5601 5600 5598 5596 5594 5592 5590 5588 5585 5584 5583 5584 5585 5586 5587 5587 5587 5587 5586 5586 5585 5584 5583 5582
5607 5604 5601 5599 5596 5593 5591 5589 5587 5584 5583 5580 5576 5573 5575 5584 5591 5596 5595 5594 5593 5591 5589 5586 5583 5581 5579 5577 5575 5572 5572 5572 5573 5574 5576 5577 5577 5577 5577 5577 5577 5576 5575
5602 5599 5596 5594 5591 5588 5585 5583 5581 5578 5575 5573 5569 5562 5559 5563 5572 5581 5583 5583 5582 5580 5578 5577 5574 5571 5569 5567 5565 5562 5560 5559 5559 5559 5561 5562 5564 5566 5566 5567 5567 5567 5567
5596 5593 5590 5587 5584 5582 5579 5577 5575 5571 5567 5563 5560 5558 5555 5551 5549 5557 5567 5568 5567 5565 5563 5562 5561 5560 5558 5556 5553 5550 5547 5545 5544 5543 5544 5545 5548 5550 5552 5554 5555 5556 5557
5590 5586 5583 5580 5577 5574 5571 5569 5566 5563 5559 5555 5551 5548 5545 5542 5539 5536 5545 5549 5551 5551 5549 5548 5547 5546 5544 5543 5541 5537 5533 5530 5528 5527 5526 5527 5528 5531 5534 5537 5540 5542 5544
5581 5579 5576 5572 5569 5566 5563 5560 5557 5554 5550 5546 5542 5538 5533 5528 5526 5523 5526 5531 5534 5536 5535 5533 5530 5528 5526 5524 5523 5520 5517 5514 5512 5509 5508 5507 5507 5509 5511 5515 5519 5524 5527
5571 5569 5567 5563 5560 5557 5554 5551 5548 5544 5540 5535 5531 5528 5524 5520 5516 5511 5510 5514 5516 5519 5517 5515 5511 5508 5505 5503 5501 5499 5498 5496 5493 5490 5488 5486 5485 5486 5488 5491 5495 5500 5506
5562 5560 5557 5554 5551 5548 5545 5541 5538 5534 5530 5525 5521 5517 5512 5508 5503 5497 5492 5489 5494 5501 5499 5497 5492 5486 5483 5479 5477 5475 5475 5474 5472 5469 5466 5464 5463 5463 5465 5468 5471 5476 5481
5554 5551 5547 5544 5541 5538 5534 5530 5526 5523 5519 5514 5509 5505 5500 5496 5490 5484 5478 5470 5465 5473 5486 5480 5471 5465 5458 5454 5451 5448 5448 5447 5447 5446 5444 5442 5441 5441 5443 5445 5449 5453 5458
5544 5541 5537 5534 5531 5527 5524 5519 5515 5511 5506 5502 5496 5491 5486 5481 5475 5469 5462 5455 5448 5444 5458 5464 5451 5442 5435 5431 5427 5424 5423 5422 5423 5423 5423 5422 5421 5421 5422 5425 5428 5432 5437
5534 5530 5527 5523 5520 5516 5512 5507 5502 5497 5492 5487 5481 5475 5470 5463 5457 5451 5444 5437 5430 5422 5427 5442 5431 5422 5414 5410 5407 5404 5404 5403 5403 5403 5403 5403 5403 5404 5405 5407 5410 5414 5418
5523 5519 5515 5511 5507 5503 5498 5493 5488 5483 5476 5470 5464 5457 5451 5444 5437 5430 5423 5417 5411 5404 5400 5409 5413 5403 5396 5391 5389 5388 5388 5388 5388 5388 5387 5388 5389 5390 5390 5392 5395 5398 5402
5511 5507 5503 5498 5494 5489 5484 5479 5473 5467 5461 5454 5446 5438 5431 5422 5417 5410 5403 5397 5392 5387 5381 5382 5391 5386 5381 5377 5374 5375 5375 5375 5375 5375 5376 5377 5377 5378 5379 5380 5382 5386 5389
5499 5495 5491 5486 5481 5476 5470 5465 5459 5453 5446 5439 5430 5422 5414 5406 5399 5393 5388 5383 5376 5372 5368 5366 5371 5372 5369 5365 5362 5362 5364 5365 5365 5365 5366 5366 5367 5367 5368 5369 5371 5374 5378
5487 5483 5478 5474 5469 5463 5457 5450 5444 5438 5432 5425 5417 5408 5400 5392 5385 5379 5375 5370 5364 5361 5358 5356 5359 5360 5360 5355 5353 5352 5355 5357 5358 5356 5356 5357 5356 5356 5357 5358 5360 5363 5367
5475 5471 5466 5462 5456 5451 5444 5438 5431 5425 5417 5409 5402 5394 5386 5378 5372 5367 5363 5360 5356 5352 5349 5347 5349 5350 5351 5347 5345 5345 5345 5347 5352 5350 5346 5350 5347 5348 5348 5348 5350 5353 5357
5463 5459 5454 5448 5443 5436 5430 5423 5416 5409 5402 5394 5385 5378 5372 5365 5359 5354 5352 5350 5347 5344 5342 5340 5340 5341 5341 5340 5337 5338 5337 5338 5342 5342 5338 5342 5340 5341 5341 5342 5344 5346 5349
5451 5446 5440 5435 5429 5422 5415 5408 5401 5394 5386 5378 5370 5363 5357 5353 5347 5344 5343 5342 5340 5338 5334 5332 5332 5334 5334 5334 5332 5331 5332 5333 5336 5336 5331 5334 5336 5335 5336 5337 5338 5340 5342
5439 5433 5427 5420 5414 5408 5399 5392 5385 5378 5371 5364 5357 5350 5344 5342 5339 5337 5336 5335 5335 5334 5331 5331 5332 5332 5333 5332 5331 5329 5328 5327 5332 5333 5329 5328 5331 5329 5330 5331 5332 5334 5336
5426 5420 5414 5406 5399 5392 5385 5376 5368 5361 5356 5351 5346 5340 5335 5332 5332 5331 5329 5328 5328 5329 5327 5327 5327 5327 5326 5326 5325 5323 5321 5321 5324 5327 5327 5323 5324 5321 5323 5326 5326 5327 5329